sat.trackr.live / text

‹ back to catalog

STARLINK-33778

NORAD 63877 · 2025-094P

PAYLOAD ACTIVE UNKNOWN

§ Identity

Operator
Country
US
Launch date
2025-05-10
Launch site
AFWTR
Launch vehicle
Mass (kg)
RCS (m²)

Purposes: comms

External: N2YO · Heavens-Above · Gunter

§ Orbital elements

Epoch: 2026-05-25T03:23:09.288672Z

Period
96.11 min
Inclination
70.0022°
Eccentricity
0.0002724
Mean motion
14.98338978 rev/d
Perigee alt
570.1 km
Apogee alt
573.9 km
Semi-major
6,950.2 km
B*
3.0827e-4
RAAN
41.7416°
Arg perigee
269.4715°
Mean anomaly
90.6132°
Rev number
5,865

§ Raw data

STARLINK-337781 63877U 25094P   26145.14107973  .00003588  00000+0  30827-3 0  99972 63877  70.0022  41.7416 0002724 269.4715  90.6132 14.98338978 58651

JSON: /api/v1/satellites/63877 · /tle

For live sub-satellite position, see the globe view (requires WebGL).

§ Visibility from observer

Set your observer location to see the next 7 days of passes ≥ 10°. The values pass through the URL so the page stays shareable.

No JS? Fill the form by hand. The geolocation button needs JavaScript.